Time,TemperatureF,DewpointF,PressureIn,WindDirection,WindDirectionDegrees,WindSpeedMPH,WindSpeedGustMPH,Humidity,HourlyPrecipIn,Conditions,Clouds,dailyrainin,SolarRadiationWatts/m^2,SoftwareType,DateUTC
2013-08-26 00:08:00,69.1,64.4,29.84,SE,124,0.0,3.0,85,0.00,CLR,,0.00,0.0,WeatherDisplay:10.37,2013-08-25 22:08:00,
2013-08-26 00:18:00,69.6,64.5,29.84,ESE,112,0.0,3.0,84,0.00,CLR,,0.00,0.0,WeatherDisplay:10.37,2013-08-25 22:18:00,
2013-08-26 00:28:00,69.8,64.7,29.84,SE,138,0.0,4.0,84,0.00,CLR,,0.00,0.0,WeatherDisplay:10.37,2013-08-25 22:28:00,
2013-08-26 00:38:00,69.6,64.2,29.84,SE,144,0.0,0.0,83,0.00,CLR,,0.00,0.0,WeatherDisplay:10.37,2013-08-25 22:38:00,
2013-08-26 00:48:00,69.6,64.2,29.84,SE,144,0.0,0.0,83,0.00,CLR,,0.00,0.0,WeatherDisplay:10.37,2013-08-25 22:48:00,
2013-08-26 00:58:00,69.4,64.0,29.84,SE,143,0.0,0.0,83,0.00,CLR,,0.00,0.0,WeatherDisplay:10.37,2013-08-25 22:58:00,
2013-08-26 01:18:00,69.1,63.7,29.84,SE,143,0.0,0.0,83,0.00,CLR,,0.00,0.0,WeatherDisplay:10.37,2013-08-25 23:18:00,
2013-08-26 01:28:00,69.3,63.9,29.83,SE,143,0.0,0.0,83,0.00,CLR,,0.00,0.0,WeatherDisplay:10.37,2013-08-25 23:28:00,
2013-08-26 01:38:00,69.4,63.7,29.83,SE,143,0.0,0.0,82,0.00,CLR,,0.00,0.0,WeatherDisplay:10.37,2013-08-25 23:38:00,
2013-08-26 01:48:00,70.0,64.3,29.83,SE,143,0.0,0.0,82,0.00,CLR,,0.00,0.0,WeatherDisplay:10.37,2013-08-25 23:48:00,
2013-08-26 01:58:00,70.7,64.5,29.83,SE,144,0.0,0.0,81,0.00,CLR,,0.00,0.0,WeatherDisplay:10.37,2013-08-25 23:58:00,
2013-08-26 02:08:00,70.3,63.9,29.83,SSE,148,0.0,0.0,80,0.00,CLR,,0.00,0.0,WeatherDisplay:10.37,2013-08-26 00:08:00,
2013-08-26 02:18:00,69.4,63.3,29.82,SSE,157,0.0,0.0,81,0.00,CLR,,0.00,0.0,WeatherDisplay:10.37,2013-08-26 00:18:00,
2013-08-26 02:28:00,71.1,65.7,29.82,SSE,157,0.0,3.0,83,0.00,CLR,,0.00,0.0,WeatherDisplay:10.37,2013-08-26 00:28:00,
2013-08-26 02:38:00,71.5,65.7,29.82,SSE,158,0.0,2.0,82,0.00,CLR,,0.00,0.0,WeatherDisplay:10.37,2013-08-26 00:38:00,
2013-08-26 02:48:00,72.0,66.2,29.82,SSE,159,1.0,2.0,82,0.00,CLR,,0.00,0.0,WeatherDisplay:10.37,2013-08-26 00:48:00,
2013-08-26 02:58:00,72.1,66.3,29.83,SSE,163,0.0,1.0,82,0.00,CLR,,0.00,0.0,WeatherDisplay:10.37,2013-08-26 00:58:00,
2013-08-26 03:08:00,72.3,66.5,29.83,South,177,1.0,6.0,82,0.00,CLR,,0.00,0.0,WeatherDisplay:10.37,2013-08-26 01:08:00,
2013-08-26 03:18:00,73.0,66.8,29.83,SSW,195,0.0,6.0,81,0.00,CLR,,0.00,0.0,WeatherDisplay:10.37,2013-08-26 01:18:00,
2013-08-26 03:28:00,70.9,64.8,29.83,SSW,193,0.0,0.0,81,0.00,CLR,,0.00,0.0,WeatherDisplay:10.37,2013-08-26 01:28:00,
2013-08-26 03:38:00,71.1,65.7,29.83,SSE,161,0.0,4.0,83,0.00,CLR,,0.00,0.0,WeatherDisplay:10.37,2013-08-26 01:38:00,
2013-08-26 03:48:00,70.6,65.2,29.83,SSE,155,0.0,0.0,83,0.00,CLR,,0.00,0.0,WeatherDisplay:10.37,2013-08-26 01:48:00,
2013-08-26 03:58:00,70.8,65.7,29.83,SSE,155,0.0,0.0,84,0.00,CLR,,0.00,0.0,WeatherDisplay:10.37,2013-08-26 01:58:00,
2013-08-26 04:08:00,70.6,65.5,29.83,SSE,155,0.0,0.0,84,0.00,CLR,,0.00,0.0,WeatherDisplay:10.37,2013-08-26 02:08:00,
2013-08-26 04:18:00,70.1,65.0,29.82,SSE,155,0.0,0.0,84,0.00,CLR,,0.00,0.0,WeatherDisplay:10.37,2013-08-26 02:18:00,
2013-08-26 04:28:00,70.1,65.4,29.82,SSE,155,0.0,0.0,85,0.00,CLR,,0.00,0.0,WeatherDisplay:10.37,2013-08-26 02:28:00,
2013-08-26 04:38:00,69.9,65.5,29.82,SSE,155,0.0,0.0,86,0.00,CLR,,0.00,0.0,WeatherDisplay:10.37,2013-08-26 02:38:00,
2013-08-26 04:48:00,70.1,66.0,29.82,SSE,155,0.0,1.0,87,0.00,CLR,,0.00,0.0,WeatherDisplay:10.37,2013-08-26 02:48:00,
2013-08-26 04:58:00,70.1,66.0,29.82,SSE,155,0.0,0.0,87,0.00,CLR,,0.00,0.0,WeatherDisplay:10.37,2013-08-26 02:58:00,
2013-08-26 05:08:00,70.0,66.3,29.83,SSE,155,0.0,0.0,88,0.00,CLR,,0.00,0.0,WeatherDisplay:10.37,2013-08-26 03:08:00,
2013-08-26 05:18:00,69.3,65.3,29.83,SSE,155,0.0,0.0,87,0.00,CLR,,0.00,0.0,WeatherDisplay:10.37,2013-08-26 03:18:00,
2013-08-26 05:28:00,69.6,65.6,29.83,SSE,155,0.0,0.0,87,0.00,CLR,,0.00,0.0,WeatherDisplay:10.37,2013-08-26 03:28:00,
2013-08-26 05:38:00,69.9,66.2,29.83,SSE,155,0.0,0.0,88,0.00,CLR,,0.00,0.0,WeatherDisplay:10.37,2013-08-26 03:38:00,
2013-08-26 05:48:00,69.8,66.1,29.83,SSE,155,0.0,0.0,88,0.00,CLR,,0.00,0.0,WeatherDisplay:10.37,2013-08-26 03:48:00,
2013-08-26 05:58:00,69.4,65.7,29.83,SSE,155,0.0,0.0,88,0.00,OVC,,0.00,0.0,WeatherDisplay:10.37,2013-08-26 03:58:00,
2013-08-26 06:18:00,68.6,65.2,29.83,SSE,155,0.0,0.0,89,0.00,OVC,,0.00,0.0,WeatherDisplay:10.37,2013-08-26 04:18:00,
2013-08-26 06:28:00,68.3,64.9,29.84,SSE,155,0.0,0.0,89,0.00,OVC,,0.00,5.0,WeatherDisplay:10.37,2013-08-26 04:28:00,
2013-08-26 06:38:00,68.1,64.7,29.84,SSE,155,0.0,0.0,89,0.00,BKN,,0.00,11.0,WeatherDisplay:10.37,2013-08-26 04:38:00,
2013-08-26 06:48:00,68.0,64.6,29.84,SSE,155,0.0,0.0,89,0.00,BKN,,0.00,21.0,WeatherDisplay:10.37,2013-08-26 04:48:00,
2013-08-26 06:58:00,67.8,64.4,29.84,SSE,155,0.0,0.0,89,0.00,BKN,,0.00,37.0,WeatherDisplay:10.37,2013-08-26 04:58:00,
2013-08-26 07:08:00,68.4,65.0,29.85,SSE,155,0.0,0.0,89,0.00,BKN,,0.00,54.0,WeatherDisplay:10.37,2013-08-26 05:08:00,
2013-08-26 07:18:00,68.1,64.7,29.85,ESE,105,0.0,0.0,89,0.00,BKN,,0.00,123.0,WeatherDisplay:10.37,2013-08-26 05:18:00,
2013-08-26 07:28:00,69.1,66.0,29.85,SSE,149,0.0,0.0,90,0.00,BKN,,0.00,74.0,WeatherDisplay:10.37,2013-08-26 05:28:00,
2013-08-26 07:38:00,69.1,65.7,29.86,SSE,155,0.0,0.0,89,0.00,BKN,,0.00,121.0,WeatherDisplay:10.37,2013-08-26 05:38:00,
2013-08-26 07:48:00,69.8,66.4,29.86,SSE,155,0.0,0.0,89,0.00,BKN,,0.00,158.0,WeatherDisplay:10.37,2013-08-26 05:48:00,
2013-08-26 07:58:00,70.6,66.9,29.86,SSE,155,0.0,0.0,88,0.00,BKN,,0.00,114.0,WeatherDisplay:10.37,2013-08-26 05:58:00,
2013-08-26 08:08:00,71.1,67.7,29.86,SSE,155,0.0,0.0,89,0.00,BKN,,0.00,74.0,WeatherDisplay:10.37,2013-08-26 06:08:00,
2013-08-26 08:18:00,72.1,68.3,29.86,SSE,155,0.0,0.0,88,0.00,BKN,,0.00,230.0,WeatherDisplay:10.37,2013-08-26 06:18:00,
2013-08-26 08:28:00,72.0,67.6,29.86,SSE,155,0.0,3.0,86,0.00,BKN,,0.00,267.0,WeatherDisplay:10.37,2013-08-26 06:28:00,
2013-08-26 08:38:00,73.2,67.4,29.86,SSE,154,0.0,1.0,82,0.00,SCT,,0.00,299.0,WeatherDisplay:10.37,2013-08-26 06:38:00,
2013-08-26 08:48:00,74.3,67.0,29.86,SSE,155,0.0,0.0,78,0.00,SCT,,0.00,327.0,WeatherDisplay:10.37,2013-08-26 06:48:00,
2013-08-26 08:58:00,75.1,65.1,29.86,SSE,155,0.0,0.0,71,0.00,SCT,,0.00,360.0,WeatherDisplay:10.37,2013-08-26 06:58:00,
2013-08-26 09:08:00,76.0,64.2,29.86,South,170,0.0,3.0,67,0.00,SCT,,0.00,390.0,WeatherDisplay:10.37,2013-08-26 07:08:00,
2013-08-26 09:18:00,76.6,61.2,29.87,South,174,0.0,2.0,59,0.00,SCT,,0.00,404.0,WeatherDisplay:10.37,2013-08-26 07:18:00,
2013-08-26 09:28:00,77.9,62.4,29.87,SW,220,0.0,5.0,59,0.00,SCT,,0.00,446.0,WeatherDisplay:10.37,2013-08-26 07:28:00,
2013-08-26 09:38:00,77.9,60.9,29.87,NW,307,1.0,5.0,56,0.00,SCT,,0.00,476.0,WeatherDisplay:10.37,2013-08-26 07:38:00,
2013-08-26 09:48:00,78.5,61.0,29.88,NNW,332,2.0,5.0,55,0.00,SCT,,0.00,506.0,WeatherDisplay:10.37,2013-08-26 07:48:00,
2013-08-26 09:58:00,79.0,60.9,29.88,NW,324,0.0,4.0,54,0.00,SCT,,0.00,531.0,WeatherDisplay:10.37,2013-08-26 07:58:00,
2013-08-26 10:08:00,79.9,61.2,29.88,NW,321,1.0,3.0,53,0.00,SCT,,0.00,559.0,WeatherDisplay:10.37,2013-08-26 08:08:00,
2013-08-26 10:18:00,80.2,59.9,29.88,NW,316,1.0,4.0,50,0.00,SCT,,0.00,584.0,WeatherDisplay:10.37,2013-08-26 08:18:00,
2013-08-26 10:28:00,80.8,61.5,29.89,NNW,328,0.0,6.0,52,0.00,SCT,,0.00,608.0,WeatherDisplay:10.37,2013-08-26 08:28:00,
2013-08-26 10:38:00,80.9,58.2,29.89,WNW,291,0.0,3.0,46,0.00,SCT,,0.00,640.0,WeatherDisplay:10.37,2013-08-26 08:38:00,
2013-08-26 10:48:00,81.8,60.2,29.88,East,79,0.0,3.0,48,0.00,SCT,,0.00,671.0,WeatherDisplay:10.37,2013-08-26 08:48:00,
2013-08-26 10:58:00,81.7,61.2,29.88,NW,317,1.0,6.0,50,0.00,SCT,,0.00,673.0,WeatherDisplay:10.37,2013-08-26 08:58:00,
2013-08-26 11:18:00,81.4,61.5,29.88,WSW,240,0.0,6.0,51,0.00,FEW,,0.00,701.0,WeatherDisplay:10.37,2013-08-26 09:18:00,
2013-08-26 11:28:00,81.9,61.5,29.88,WNW,291,1.0,6.0,50,0.00,FEW,,0.00,721.0,WeatherDisplay:10.37,2013-08-26 09:28:00,
2013-08-26 11:38:00,81.8,60.8,29.88,NNW,336,1.0,7.0,49,0.00,FEW,,0.00,733.0,WeatherDisplay:10.37,2013-08-26 09:38:00,
2013-08-26 11:48:00,81.8,60.8,29.88,NW,318,1.0,5.0,49,0.00,FEW,,0.00,751.0,WeatherDisplay:10.37,2013-08-26 09:48:00,
2013-08-26 11:58:00,82.6,61.0,29.87,NW,309,0.0,4.0,48,0.00,FEW,,0.00,754.0,WeatherDisplay:10.37,2013-08-26 09:58:00,
2013-08-26 12:08:00,83.4,61.1,29.87,West,272,1.0,6.0,47,0.00,FEW,,0.00,754.0,WeatherDisplay:10.37,2013-08-26 10:08:00,
2013-08-26 12:18:00,82.8,59.9,29.87,NE,38,2.0,6.0,46,0.00,FEW,,0.00,777.0,WeatherDisplay:10.37,2013-08-26 10:18:00,
2013-08-26 12:28:00,84.0,59.7,29.88,East,84,0.0,5.0,44,0.00,FEW,,0.00,784.0,WeatherDisplay:10.37,2013-08-26 10:28:00,
2013-08-26 12:38:00,84.4,61.9,29.88,NW,308,8.0,13.0,47,0.00,FEW,,0.00,789.0,WeatherDisplay:10.37,2013-08-26 10:38:00,
2013-08-26 12:48:00,82.9,61.2,29.89,NW,315,5.0,14.0,48,0.00,FEW,,0.00,809.0,WeatherDisplay:10.37,2013-08-26 10:48:00,
2013-08-26 12:58:00,82.6,60.9,29.89,WSW,255,6.0,12.0,48,0.00,FEW,,0.00,575.0,WeatherDisplay:10.37,2013-08-26 10:58:00,
2013-08-26 13:08:00,83.2,59.0,29.89,WNW,285,3.0,9.0,44,0.00,CLR,,0.00,860.0,WeatherDisplay:10.37,2013-08-26 11:08:00,
2013-08-26 13:18:00,84.4,59.4,29.89,West,277,2.0,10.0,43,0.00,CLR,,0.00,904.0,WeatherDisplay:10.37,2013-08-26 11:18:00,
2013-08-26 13:28:00,84.0,59.7,29.89,WNW,301,6.0,10.0,44,0.00,CLR,,0.00,803.0,WeatherDisplay:10.37,2013-08-26 11:28:00,
2013-08-26 13:38:00,84.7,60.4,29.89,WNW,289,1.0,9.0,44,0.00,FEW,,0.00,438.0,WeatherDisplay:10.37,2013-08-26 11:38:00,
2013-08-26 13:48:00,83.3,61.6,29.89,NW,317,7.0,13.0,48,0.00,BKN,,0.00,353.0,WeatherDisplay:10.37,2013-08-26 11:48:00,
2013-08-26 13:58:00,81.8,63.0,29.88,NW,326,2.0,12.0,53,0.00,SCT,,0.00,932.0,WeatherDisplay:10.37,2013-08-26 11:58:00,
2013-08-26 14:08:00,82.8,65.0,29.88,North,353,3.0,12.0,55,0.00,CLR,,0.00,831.0,WeatherDisplay:10.37,2013-08-26 12:08:00,
2013-08-26 14:18:00,82.8,64.5,29.88,WNW,302,3.0,10.0,54,0.00,CLR,,0.00,751.0,WeatherDisplay:10.37,2013-08-26 12:18:00,
2013-08-26 14:28:00,82.4,64.1,29.87,NW,316,3.0,14.0,54,0.00,FEW,,0.00,589.0,WeatherDisplay:10.37,2013-08-26 12:28:00,
2013-08-26 14:38:00,81.8,63.5,29.87,WNW,303,5.0,12.0,54,0.00,SCT,,0.00,512.0,WeatherDisplay:10.37,2013-08-26 12:38:00,
2013-08-26 14:48:00,82.2,61.7,29.88,NW,315,1.0,10.0,50,0.00,CLR,,0.00,504.0,WeatherDisplay:10.37,2013-08-26 12:48:00,
2013-08-26 14:58:00,82.1,61.6,29.87,West,278,1.0,7.0,50,0.00,BKN,,0.00,211.0,WeatherDisplay:10.37,2013-08-26 12:58:00,
2013-08-26 15:08:00,81.0,60.1,29.88,WNW,293,0.0,7.0,49,0.00,BKN,,0.00,155.0,WeatherDisplay:10.37,2013-08-26 13:08:00,
2013-08-26 15:18:00,80.1,60.9,29.88,WNW,291,1.0,9.0,52,0.00,BKN,,0.00,169.0,WeatherDisplay:10.37,2013-08-26 13:18:00,
2013-08-26 15:28:00,80.3,62.1,29.88,NW,314,0.0,9.0,54,0.00,BKN,,0.00,522.0,WeatherDisplay:10.37,2013-08-26 13:28:00,
2013-08-26 15:37:00,81.6,60.6,29.87,WNW,298,5.0,9.0,49,0.00,CLR,,0.00,722.0,WeatherDisplay:10.37,2013-08-26 13:37:00,
2013-08-26 15:48:00,83.0,60.1,29.87,WNW,294,3.0,9.0,46,0.00,CLR,,0.00,703.0,WeatherDisplay:10.37,2013-08-26 13:48:00,
2013-08-26 15:58:00,83.4,59.8,29.87,NW,311,2.0,12.0,45,0.00,CLR,,0.00,613.0,WeatherDisplay:10.37,2013-08-26 13:58:00,
2013-08-26 16:08:00,83.2,57.7,29.87,WNW,295,3.0,12.0,42,0.00,CLR,,0.00,580.0,WeatherDisplay:10.37,2013-08-26 14:08:00,
2013-08-26 16:18:00,83.9,57.7,29.87,NW,314,3.0,10.0,41,0.00,CLR,,0.00,559.0,WeatherDisplay:10.37,2013-08-26 14:18:00,
2013-08-26 16:28:00,83.0,58.9,29.87,NW,312,2.0,16.0,44,0.00,CLR,,0.00,188.0,WeatherDisplay:10.37,2013-08-26 14:28:00,
2013-08-26 16:38:00,82.5,62.5,29.87,NW,312,2.0,10.0,51,0.00,CLR,,0.00,519.0,WeatherDisplay:10.37,2013-08-26 14:38:00,
2013-08-26 16:48:00,83.6,64.1,29.86,NW,308,6.0,9.0,52,0.00,CLR,,0.00,357.0,WeatherDisplay:10.37,2013-08-26 14:48:00,
2013-08-26 16:58:00,83.2,64.8,29.86,WNW,302,2.0,9.0,54,0.00,CLR,,0.00,420.0,WeatherDisplay:10.37,2013-08-26 14:58:00,
2013-08-26 17:08:00,82.6,64.8,29.86,NW,305,3.0,9.0,55,0.00,CLR,,0.00,378.0,WeatherDisplay:10.37,2013-08-26 15:08:00,
2013-08-26 17:18:00,81.8,65.1,29.86,WNW,296,5.0,9.0,57,0.00,CLR,,0.00,329.0,WeatherDisplay:10.37,2013-08-26 15:18:00,
2013-08-26 17:28:00,81.4,65.7,29.86,NNW,331,1.0,9.0,59,0.00,CLR,,0.00,155.0,WeatherDisplay:10.37,2013-08-26 15:28:00,
2013-08-26 17:38:00,80.7,65.5,29.87,West,262,2.0,10.0,60,0.00,CLR,,0.00,367.0,WeatherDisplay:10.37,2013-08-26 15:38:00,
2013-08-26 17:48:00,81.4,65.7,29.87,NW,310,3.0,10.0,59,0.00,CLR,,0.00,322.0,WeatherDisplay:10.37,2013-08-26 15:48:00,
2013-08-26 17:58:00,81.4,65.7,29.86,WNW,285,3.0,7.0,59,0.00,CLR,,0.00,269.0,WeatherDisplay:10.37,2013-08-26 15:58:00,
2013-08-26 18:08:00,81.2,66.4,29.87,NW,307,3.0,10.0,61,0.00,CLR,,0.00,230.0,WeatherDisplay:10.37,2013-08-26 16:08:00,
2013-08-26 18:18:00,80.7,66.5,29.87,West,279,3.0,7.0,62,0.00,CLR,,0.00,197.0,WeatherDisplay:10.37,2013-08-26 16:18:00,
2013-08-26 18:28:00,80.5,66.3,29.86,WNW,293,2.0,6.0,62,0.00,CLR,,0.00,171.0,WeatherDisplay:10.37,2013-08-26 16:28:00,
2013-08-26 18:38:00,80.7,66.9,29.86,NW,316,0.0,5.0,63,0.00,CLR,,0.00,141.0,WeatherDisplay:10.37,2013-08-26 16:38:00,
2013-08-26 18:48:00,80.7,67.4,29.86,NW,322,0.0,2.0,64,0.00,OVC,,0.00,107.0,WeatherDisplay:10.37,2013-08-26 16:48:00,
2013-08-26 18:58:00,80.6,67.8,29.86,NW,325,0.0,1.0,65,0.00,OVC,,0.00,79.0,WeatherDisplay:10.37,2013-08-26 16:58:00,
2013-08-26 19:07:00,79.8,67.0,29.86,WNW,284,0.0,5.0,65,0.00,OVC,,0.00,49.0,WeatherDisplay:10.37,2013-08-26 17:07:00,
2013-08-26 19:18:00,79.4,67.5,29.87,WSW,257,0.0,2.0,67,0.00,OVC,,0.00,32.0,WeatherDisplay:10.37,2013-08-26 17:18:00,
2013-08-26 19:28:00,78.8,67.8,29.86,West,259,0.0,1.0,69,0.00,OVC,,0.00,19.0,WeatherDisplay:10.37,2013-08-26 17:28:00,
2013-08-26 19:38:00,78.4,67.8,29.86,West,259,0.0,0.0,70,0.00,OVC,,0.00,7.0,WeatherDisplay:10.37,2013-08-26 17:38:00,
2013-08-26 19:48:00,77.7,68.0,29.86,West,259,0.0,0.0,72,0.00,OVC,,0.00,0.0,WeatherDisplay:10.37,2013-08-26 17:48:00,
2013-08-26 19:58:00,76.8,67.9,29.86,West,259,0.0,0.0,74,0.00,CLR,,0.00,0.0,WeatherDisplay:10.37,2013-08-26 17:58:00,
2013-08-26 20:08:00,76.3,68.2,29.86,West,259,0.0,0.0,76,0.00,CLR,,0.00,0.0,WeatherDisplay:10.37,2013-08-26 18:08:00,
2013-08-26 20:18:00,75.8,68.1,29.86,West,259,0.0,0.0,77,0.00,CLR,,0.00,0.0,WeatherDisplay:10.37,2013-08-26 18:18:00,
2013-08-26 20:28:00,75.1,68.1,29.86,West,259,0.0,2.0,79,0.00,CLR,,0.00,0.0,WeatherDisplay:10.37,2013-08-26 18:28:00,
2013-08-26 20:38:00,75.1,68.1,29.86,West,259,0.0,0.0,79,0.00,CLR,,0.00,0.0,WeatherDisplay:10.37,2013-08-26 18:38:00,
2013-08-26 20:48:00,74.9,67.9,29.87,West,259,0.0,0.0,79,0.00,CLR,,0.00,0.0,WeatherDisplay:10.37,2013-08-26 18:48:00,
2013-08-26 20:58:00,74.2,67.7,29.87,West,259,0.0,0.0,80,0.00,CLR,,0.00,0.0,WeatherDisplay:10.37,2013-08-26 18:58:00,
2013-08-26 21:08:00,74.0,67.8,29.88,West,259,0.0,0.0,81,0.00,CLR,,0.00,0.0,WeatherDisplay:10.37,2013-08-26 19:08:00,
2013-08-26 21:18:00,74.2,68.0,29.88,West,259,0.0,0.0,81,0.00,CLR,,0.00,0.0,WeatherDisplay:10.37,2013-08-26 19:18:00,
2013-08-26 21:28:00,74.2,68.0,29.88,West,259,0.0,1.0,81,0.00,CLR,,0.00,0.0,WeatherDisplay:10.37,2013-08-26 19:28:00,
2013-08-26 21:38:00,73.5,67.7,29.88,West,259,0.0,0.0,82,0.00,CLR,,0.00,0.0,WeatherDisplay:10.37,2013-08-26 19:38:00,
2013-08-26 21:48:00,73.3,67.5,29.87,West,259,0.0,0.0,82,0.00,CLR,,0.00,0.0,WeatherDisplay:10.37,2013-08-26 19:48:00,
2013-08-26 21:58:00,73.5,68.0,29.87,West,259,0.0,0.0,83,0.00,CLR,,0.00,0.0,WeatherDisplay:10.37,2013-08-26 19:58:00,
2013-08-26 22:08:00,73.3,67.8,29.87,WSW,258,0.0,0.0,83,0.00,CLR,,0.00,0.0,WeatherDisplay:10.37,2013-08-26 20:08:00,
2013-08-26 22:18:00,73.0,67.5,29.87,WSW,258,0.0,3.0,83,0.00,CLR,,0.00,0.0,WeatherDisplay:10.37,2013-08-26 20:18:00,
2013-08-26 22:28:00,72.7,67.2,29.87,WSW,258,0.0,0.0,83,0.00,CLR,,0.00,0.0,WeatherDisplay:10.37,2013-08-26 20:28:00,
2013-08-26 22:38:00,72.5,67.4,29.87,WSW,258,0.0,0.0,84,0.00,CLR,,0.00,0.0,WeatherDisplay:10.37,2013-08-26 20:38:00,
2013-08-26 22:48:00,72.5,67.4,29.87,WSW,258,0.0,0.0,84,0.00,CLR,,0.00,0.0,WeatherDisplay:10.37,2013-08-26 20:48:00,
2013-08-26 22:58:00,72.1,67.0,29.87,WSW,258,0.0,0.0,84,0.00,CLR,,0.00,0.0,WeatherDisplay:10.37,2013-08-26 20:58:00,
2013-08-26 23:08:00,72.8,67.7,29.86,WSW,257,1.0,2.0,84,0.00,CLR,,0.00,0.0,WeatherDisplay:10.37,2013-08-26 21:08:00,
2013-08-26 23:18:00,72.7,67.6,29.86,WSW,255,0.0,0.0,84,0.00,CLR,,0.00,0.0,WeatherDisplay:10.37,2013-08-26 21:18:00,
2013-08-26 23:28:00,72.2,67.1,29.86,WSW,255,0.0,2.0,84,0.00,CLR,,0.00,0.0,WeatherDisplay:10.37,2013-08-26 21:28:00,
2013-08-26 23:38:00,72.3,67.2,29.86,South,181,1.0,5.0,84,0.00,CLR,,0.00,0.0,WeatherDisplay:10.37,2013-08-26 21:38:00,
2013-08-26 23:48:00,72.3,67.2,29.85,South,170,0.0,4.0,84,0.00,CLR,,0.00,0.0,WeatherDisplay:10.37,2013-08-26 21:48:00,
2013-08-26 23:58:00,72.5,67.7,29.85,South,172,0.0,3.0,85,0.00,CLR,,0.00,0.0,WeatherDisplay:10.37,2013-08-26 21:58:00,